AirNav   ATP
 
 786 users online  

OI35 Scott Park Heliport
Toledo, Ohio, USA

GOING TO TOLEDO?


FAA INFORMATION EFFECTIVE 09 NOVEMBER 2017

Location

FAA Identifier: OI35
Lat/Long: 41-38-23.1800N / 083-35-35.7650W
41-38.386333N / 083-35.596083W
41.6397722 / -83.5932681
(estimated)
Elevation: 620 ft. / 189 m (estimated)
Variation: 05W (2000)
From city: 3 miles SW of TOLEDO, OH
Time zone: UTC -5 (UTC -4 during Daylight Saving Time)
Zip code: 43607

Heliport Operations

Heliport use: Private use. Permission required prior to landing
Activation date: 08/1978
Control tower: no
ARTCC: CLEVELAND CENTER
FSS: CLEVELAND FLIGHT SERVICE STATION
Attendance: UNATNDD
Wind indicator: no
Segmented circle: no

Heliport Communications

WX AWOS-3 at DUH (6 nm NW): 119.175 (734-856-1563)
WX ASOS at TDZ (7 nm SE): 121.575 (419-838-5034)
WX ASOS at TOL (10 nm W): PHONE 419-865-6924
WX AWOS-3 at 1G0 (15 nm S): 120.725 (419-354-1415)
WX AWOS-3 at TTF (19 nm N): 119.075 (734-384-0259)

Nearby radio navigation aids

VOR radial/distance  VOR name  Freq  Var
VWVr012/11.5WATERVILLE VOR/DME113.1002W
CRLr197/25.2CARLETON VOR/DME115.7003W
DXOr202/35.9DETROIT VOR/DME113.4006W

 
NDB name  Hdg/Dist  Freq  Var  ID
ADRIAN129/25.727806WADG .- -.. --.
TECUMSEH157/27.023906WTCU - -.-. ..-
PORT CLINTON290/33.342307WPCW .--. -.-. .--
GROSSE ILE222/34.041907WRYS .-. -.-- ...
TIFFIN337/36.926905WTII - .. ..

Heliport Services

Runway Information

Helipad H1

Dimensions: 380 x 261 ft. / 116 x 80 m
Surface: turf
Latitude: 41-38.386333N
Longitude: 083-35.596083W
Elevation: 620.0 ft.
Traffic pattern: leftleft

Heliport Ownership and Management from official FAA records

Ownership: Publicly-owned
Owner: UNIVERSITY OF TOLEDO
2801 WEST BANCROFT
TOLEDO, OH 43606
Phone 419-537-2072

Instrument Procedures

There are no published instrument procedures at OI35.

Some nearby airports with instrument procedures:

KDUH - Toledo Suburban Airport (6 nm NW)
KTDZ - Toledo Executive Airport (7 nm SE)
KTOL - Toledo Express Airport (10 nm W)
1G0 - Wood County Airport (15 nm S)
KTTF - Custer Airport (19 nm N)
 
Loc | Ops | Rwys | IFR | FBO | Links
Com | Nav | Svcs | Stats | Notes


 
Area around OI35 (Scott Park Heliport)
 
Road maps at: MapQuest Bing Google
 
Aerial photo
No photo
 
Sectional chart

 
Airport distance calculator
Flying to Scott Park Heliport? Find the distance to fly.

From to OI35

Sunrise and sunset
Times for 20-Nov-2017
 Local
(UTC-5)
 Zulu
(UTC)
Morning civil twilight07:0012:00
Sunrise07:3012:30
Sunset17:1022:10
Evening civil twilight17:4022:40

Current date and time
Zulu (UTC)  21-Nov-2017 03:50:22
Local (UTC-5)  20-Nov-2017 22:50:22
 
METAR
KDUH 
6nm NW 
210335Z AUTO 20010G17KT 10SM CLR 05/M03 A2985 RMK AO2 T00521030
KTDZ 
7nm SE 
210253Z AUTO 20013KT 10SM CLR 04/M03 A2989 RMK AO2 SLP124 T00441028 58014
KTOL 
10nm W 
210252Z 20013KT 10SM CLR 06/M03 A2987 RMK AO2 SLP119 T00561028 58013
KTTF 
19nm NE 
210332Z AUTO 20010G16KT 10SM CLR 05/M04 A2984 RMK AO2 T00541038
TAF
KTOL 
10nm W 
201726Z 2018/2118 21014G22KT P6SM SKC FM210400 21012KT P6SM BKN250 WS020/23055KT FM211500 22016G26KT P6SM SCT060 BKN120
NOTAMs
Click for the latest NOTAMs
NOTAMs are issued by the DoD/FAA and will open in a separate window not controlled by AirNav.

 

 
 

Would you like to see your business listed on this page?

 If your business provides an interesting product or service to pilots, flight crews, aircraft, or users of the Scott Park Heliport, you should consider listing it here.  To start the listing process, click on the button below
 
Add a business
 

Other Pages about Scott Park Heliport

Update a link
 
Copyright © AirNav, LLC. All rights reserved. Privacy Policy  Contact